Ball Ground, GA

11:30 PM EST on February 11, 2016 (GMT -0500)
Canton

Weather History for KCNI - October, 2012

Change the Weather History Date:

Monday, October 8, 2012

  Actual Average (KGVL) Record (KGVL)
Temperature  
Mean Temperature 54 °F 64 °F  
Max Temperature 60 °F 74 °F 90 °F (1939)
Min Temperature 48 °F 54 °F 30 °F (1935)
Degree Days  
Heating Degree Days 11 3  
Month to date heating degree days 19  
Since 1 July heating degree days 32  
Cooling Degree Days 0 2  
Month to date cooling degree days 19  
Year to date cooling degree days 1560  
Growing Degree Days 4 (Base 50)    
Moisture  
Dew Point 43 °F    
Average Humidity 69    
Maximum Humidity 82    
Minimum Humidity 45    
Precipitation  
Precipitation 0.00 in 0.14 in 1.64 in (2008)
Month to date precipitation 1.33  
Year to date precipitation 42.26  
Sea Level Pressure  
Sea Level Pressure 30.12 in    
Wind  
Wind Speed 2 mph ()    
Max Wind Speed 10 mph    
Max Gust Speed -    
Visibility 9.9 miles    
Events      
T = Trace of Precipitation, MM = Missing Value Source: Averaged Metar Reports

Daily Weather History Graph

Daily Weather History Graph

Search for Another Location

Airport or City:

Trip Planner

Search our weather history database for the weather conditions in past years. The results will help you decide how hot, cold, wet, or windy it might be!

Date:

Astronomy

Oct. 08, 2012 Rise Set
Actual Time 7:37 AM EDT 7:11 PM EDT
Civil Twilight 7:12 AM EDT 7:36 PM EDT
Nautical Twilight 6:43 AM EDT 8:05 PM EDT
Astronomical Twilight 6:14 AM EDT 8:34 PM EDT
Moon 12:33 AM EDT (10/8) 2:44 PM EDT (10/8)
Length of Visible Light 12h 24m
Length of Day
11h 33m
Waning Gibbous, 46% of the Moon is Illuminated
Oct 8
Waning Gibbous
Oct 15
New
Oct 21
First Quarter
Oct 29
Full
Nov 6
Last Quarter

Hourly Weather History & Observations

Time (EDT) Temp. Dew Point Humidity Pressure Visibility Wind Dir Wind Speed Gust Speed Precip Events Conditions
12:15 AM 50.0 °F 35.6 °F 58% 30.07 in 10.0 mi Calm Calm - N/A   Clear
12:35 AM 48.2 °F 37.4 °F 66% 30.08 in 10.0 mi Calm Calm - N/A   Clear
12:55 AM 50.0 °F 37.4 °F 62% 30.07 in 10.0 mi Calm Calm - N/A   Clear
1:15 AM 50.0 °F 37.4 °F 62% 30.08 in 10.0 mi Calm Calm - N/A   Clear
1:35 AM 50.0 °F 39.2 °F 66% 30.07 in 10.0 mi Calm Calm - N/A   Clear
1:55 AM 48.2 °F 41.0 °F 76% 30.08 in 10.0 mi Calm Calm - N/A   Scattered Clouds
2:15 AM 50.0 °F 41.0 °F 71% 30.09 in 10.0 mi Calm Calm - N/A   Overcast
2:35 AM 50.0 °F 41.0 °F 71% 30.10 in 10.0 mi Calm Calm - N/A   Overcast
2:55 AM 51.8 °F 42.8 °F 71% 30.10 in 10.0 mi Calm Calm - N/A   Overcast
3:15 AM 51.8 °F 42.8 °F 71% 30.09 in 10.0 mi Calm Calm - N/A   Overcast
3:35 AM 51.8 °F 44.6 °F 76% 30.09 in 10.0 mi Calm Calm - N/A   Overcast
3:55 AM 51.8 °F 44.6 °F 76% 30.09 in 10.0 mi Calm Calm - N/A   Overcast
4:15 AM 51.8 °F 46.4 °F 82% 30.09 in 10.0 mi Calm Calm - N/A   Overcast
4:35 AM 51.8 °F 46.4 °F 82% 30.09 in 10.0 mi Calm Calm - N/A   Overcast
4:55 AM 53.6 °F 46.4 °F 77% 30.08 in 10.0 mi ENE 3.5 mph - N/A   Overcast
5:15 AM 53.6 °F 46.4 °F 77% 30.09 in 10.0 mi NE 3.5 mph - N/A   Overcast
5:35 AM 53.6 °F 46.4 °F 77% 30.09 in 10.0 mi ENE 6.9 mph - N/A   Overcast
5:55 AM 53.6 °F 44.6 °F 72% 30.09 in 10.0 mi ENE 8.1 mph - N/A   Overcast
6:15 AM 55.4 °F 44.6 °F 67% 30.08 in 10.0 mi East 5.8 mph - N/A   Overcast
6:35 AM 53.6 °F 44.6 °F 72% 30.08 in 10.0 mi ENE 8.1 mph - N/A   Overcast
6:55 AM 53.6 °F 44.6 °F 72% 30.08 in 10.0 mi ENE 8.1 mph - N/A   Overcast
7:15 AM 53.6 °F 44.6 °F 72% 30.09 in 10.0 mi ENE 5.8 mph - N/A   Overcast
7:35 AM 53.6 °F 44.6 °F 72% 30.09 in 10.0 mi ENE 6.9 mph - N/A   Overcast
7:55 AM 53.6 °F 44.6 °F 72% 30.11 in 10.0 mi ENE 8.1 mph - N/A   Overcast
8:15 AM 53.6 °F 44.6 °F 72% 30.12 in 10.0 mi ENE 5.8 mph - N/A   Overcast
8:35 AM 53.6 °F 44.6 °F 72% 30.13 in 10.0 mi ENE 5.8 mph - N/A   Overcast
8:55 AM 53.6 °F 44.6 °F 72% 30.14 in 10.0 mi NE 4.6 mph - N/A   Overcast
9:15 AM 53.6 °F 44.6 °F 72% 30.16 in 10.0 mi NNE 5.8 mph - N/A   Overcast
9:35 AM 53.6 °F 42.8 °F 67% 30.16 in 10.0 mi ENE 8.1 mph - N/A   Overcast
9:55 AM 53.6 °F 42.8 °F 67% 30.17 in 10.0 mi ENE 5.8 mph - N/A   Overcast
10:15 AM 55.4 °F 41.0 °F 58% 30.18 in 10.0 mi ENE 8.1 mph - N/A   Overcast
10:35 AM 53.6 °F 42.8 °F 67% 30.16 in 10.0 mi NE 3.5 mph - N/A   Overcast
10:55 AM 53.6 °F 42.8 °F 67% 30.18 in 10.0 mi Calm Calm - N/A   Overcast
11:15 AM 53.6 °F 44.6 °F 72% 30.18 in 10.0 mi Calm Calm - N/A   Overcast
11:35 AM 53.6 °F 42.8 °F 67% 30.18 in 10.0 mi Calm Calm - N/A   Overcast
11:55 AM 53.6 °F 44.6 °F 72% 30.18 in 10.0 mi North 3.5 mph - N/A   Overcast
12:15 PM 55.4 °F 42.8 °F 63% 30.17 in 10.0 mi Calm Calm - N/A   Overcast
12:35 PM 55.4 °F 42.8 °F 63% 30.16 in 10.0 mi ENE 4.6 mph - N/A   Overcast
12:55 PM 59.0 °F 39.2 °F 48% 30.15 in 10.0 mi East 6.9 mph - N/A   Overcast
1:15 PM 59.0 °F 39.2 °F 48% 30.14 in 10.0 mi ENE 10.4 mph - N/A   Overcast
1:55 PM 59.0 °F 39.2 °F 48% 30.13 in 10.0 mi ESE 4.6 mph - N/A   Mostly Cloudy
2:15 PM 60.8 °F 39.2 °F 45% 30.13 in 10.0 mi Calm Calm - N/A   Mostly Cloudy
2:35 PM 60.8 °F 41.0 °F 48% 30.12 in 10.0 mi North 3.5 mph - N/A   Overcast
2:55 PM 59.0 °F 42.8 °F 55% 30.12 in 10.0 mi Calm Calm - N/A   Overcast
3:15 PM 59.0 °F 42.8 °F 55% 30.12 in 10.0 mi Calm Calm - N/A   Overcast
3:35 PM 55.4 °F 44.6 °F 67% 30.12 in 10.0 mi West 3.5 mph - N/A   Overcast
3:55 PM 55.4 °F 44.6 °F 67% 30.12 in 10.0 mi WNW 5.8 mph - N/A   Overcast
4:15 PM 55.4 °F 44.6 °F 67% 30.11 in 10.0 mi Calm Calm - N/A   Overcast
4:35 PM 55.4 °F 44.6 °F 67% 30.11 in 10.0 mi NW 4.6 mph - N/A   Overcast
4:55 PM 55.4 °F 44.6 °F 67% 30.11 in 10.0 mi WNW 4.6 mph - N/A   Overcast
5:15 PM 55.4 °F 44.6 °F 67% 30.11 in 10.0 mi WNW 4.6 mph - N/A   Overcast
5:35 PM 53.6 °F 44.6 °F 72% 30.11 in 10.0 mi WNW 5.8 mph - N/A   Overcast
5:55 PM 53.6 °F 44.6 °F 72% 30.11 in 10.0 mi NW 4.6 mph - N/A   Overcast
6:15 PM 53.6 °F 44.6 °F 72% 30.12 in 10.0 mi Calm Calm - N/A   Overcast
6:35 PM 53.6 °F 44.6 °F 72% 30.12 in 10.0 mi WNW 5.8 mph - N/A   Overcast
6:55 PM 53.6 °F 44.6 °F 72% 30.12 in 10.0 mi WNW 3.5 mph - N/A   Overcast
7:15 PM 53.6 °F 44.6 °F 72% 30.11 in 10.0 mi Calm Calm - N/A   Overcast
7:55 PM 51.8 °F 44.6 °F 76% 30.12 in 10.0 mi WNW 5.8 mph - N/A   Overcast
8:15 PM 51.8 °F 44.6 °F 76% 30.12 in 7.0 mi NW 3.5 mph - N/A   Overcast
8:35 PM 51.8 °F 44.6 °F 76% 30.13 in 10.0 mi NW 3.5 mph - N/A   Overcast
9:15 PM 51.8 °F 44.6 °F 76% 30.14 in 10.0 mi Calm Calm - N/A   Overcast
9:35 PM 51.8 °F 44.6 °F 76% 30.14 in 10.0 mi Calm Calm - N/A   Overcast
10:15 PM 51.8 °F 44.6 °F 76% 30.15 in 10.0 mi Calm Calm - N/A   Overcast
10:35 PM 51.8 °F 44.6 °F 76% 30.15 in 10.0 mi Calm Calm - N/A   Overcast
10:55 PM 51.8 °F 44.6 °F 76% 30.15 in 10.0 mi Calm Calm - N/A   Overcast
11:15 PM 51.8 °F 44.6 °F 76% 30.15 in 10.0 mi Calm Calm - N/A   Overcast
11:55 PM 51.8 °F 44.6 °F 76% 30.15 in 7.0 mi Calm Calm - N/A   Overcast